This demonstration page uses our WeatherBlox Daily Observations layout. Learn more.

Left ArrowRight Arrow

39.51506, -84.39828

Hourly Observations for May 6, 2018

Temp ( °F °C ) Dew Point ( °F °C ) Humidity (%) Winds ( mph kmh ) Pressure ( in mb ) Visibility ( mi km ) Precip ( " mm )
12:15 am 00:15 Clear 56 13.3 54 12.4 94 94 NNW 3 6 30.00 1016 10 16 0.00 0.00
12:35 am 00:35 Clear 56 13.3 54 12.4 94 94 NNW 3 6 30.00 1016 10 16 0.00 0.00
12:55 am 00:55 Clear 56 13.1 54 12.2 94 94 Calm 30.00 1016 10 16 0.00 0.00
1:15 am 01:15 Clear 56 13.3 54 12.3 94 94 NNE 3 6 30.00 1016 10 16 0.00 0.00
1:35 am 01:35 Partly Cloudy 56 13.2 54 12.3 94 94 N 3 6 29.97 1015 10 16 0.00 0.00
1:55 am 01:55 Clear 55 12.9 54 12 94 94 Calm 29.97 1015 10 16 0.00 0.00
2:15 am 02:15 Clear 55 12.8 53 11.9 94 94 Calm 30.00 1016 10 16 0.00 0.00
2:35 am 02:35 Clear 56 13.6 53 11.9 90 90 Calm 29.97 1015 10 16 0.00 0.00
2:55 am 02:55 Clear 54 12.3 53 11.6 96 96 Calm 29.97 1015 10 16 0.00 0.00
3:15 am 03:15 Clear 55 12.5 53 11.6 94 94 Calm 30.00 1016 10 16 0.00 0.00
3:35 am 03:35 Clear 54 12.4 53 11.7 96 96 Calm 29.97 1015 10 16 0.00 0.00
3:55 am 03:55 Clear 54 12.4 53 11.7 96 96 Calm 29.97 1015 10 16 0.00 0.00
4:15 am 04:15 Clear 54 12.3 53 11.4 94 94 Calm 30.00 1016 10 16 0.00 0.00
4:35 am 04:35 Clear 54 12.1 53 11.7 97 97 Calm 30.00 1016 10 16 0.00 0.00
4:55 am 04:55 Clear 54 12.1 53 11.6 97 97 Calm 30.00 1016 10 16 0.00 0.00
5:15 am 05:15 Clear 54 12 53 11.5 97 97 Calm 30.00 1016 10 16 0.00 0.00
5:35 am 05:35 Clear 53 11.9 53 11.4 97 97 Calm 30.00 1016 10 16 0.00 0.00
5:55 am 05:55 Clear 53 11.7 52 11.2 97 97 Calm 30.00 1016 10 16 0.00 0.00
6:15 am 06:15 Clear 53 11.9 52 11.2 96 96 Calm 30.00 1016 10 16 0.00 0.00
6:35 am 06:35 Sunny 54 12.3 53 11.4 94 94 Calm 30.00 1016 10 16 0.00 0.00
6:55 am 06:55 Sunny 54 12.1 53 11.4 96 96 Calm 30.00 1016 10 16 0.00 0.00
7:15 am 07:15 Sunny 53 11.7 52 11.2 97 97 Calm 30.00 1016 10 16 0.00 0.00
7:35 am 07:35 Sunny 53 11.8 53 11.4 97 97 Calm 30.00 1016 10 16 0.00 0.00
7:55 am 07:55 Sunny 55 12.9 54 12.3 96 96 Calm 30.00 1016 7 11 0.00 0.00
8:15 am 08:15 Sunny 56 13.5 54 12.4 93 93 Calm 30.00 1016 10 16 0.00 0.00
8:35 am 08:35 Sunny 57 14.1 55 12.6 91 91 Calm 30.00 1016 10 16 0.00 0.00
8:55 am 08:55 Sunny 58 14.5 55 13 91 91 Calm 30.00 1016 10 16 0.00 0.00
9:15 am 09:15 Sunny 60 15.6 55 12.6 82 82 Calm 29.94 1014 10 16 0.00 0.00
9:35 am 09:35 Sunny 61 16 55 12.6 80 80 Calm 29.94 1014 10 16 0.00 0.00
9:55 am 09:55 Sunny 63 17.1 55 12.6 75 75 Calm 29.97 1015 10 16 0.00 0.00
10:15 am 10:15 Sunny 64 17.9 56 13.2 74 74 Calm 29.97 1015 10 16 0.00 0.00
10:35 am 10:35 Sunny 66 18.8 56 13.2 70 70 S 3 6 29.97 1015 10 16 0.00 0.00
10:55 am 10:55 Sunny 67 19.6 57 13.7 69 69 S 5 7 29.97 1015 10 16 0.00 0.00
11:15 am 11:15 Sunny 69 20.5 55 13 62 62 S 6 9 29.94 1014 10 16 0.00 0.00
11:35 am 11:35 Sunny 70 20.9 56 13.2 62 62 SSE 3 6 29.94 1014 7 11 0.00 0.00
11:55 am 11:55 Sunny 71 21.6 55 12.8 57 57 S 5 7 29.94 1014 10 16 0.00 0.00
12:15 pm 12:15 Sunny 71 21.8 54 12.1 54 54 SSW 3 6 29.94 1014 10 16 0.00 0.00
12:35 pm 12:35 Sunny 73 22.7 55 13 54 54 SW 5 7 29.94 1014 10 16 0.00 0.00
12:55 pm 12:55 Sunny 73 22.8 53 11.6 49 49 SW 3 6 29.94 1014 10 16 0.00 0.00
1:15 pm 13:15 Sunny 74 23.2 52 11.1 47 47 SSW 3 6 29.94 1014 10 16 0.00 0.00
1:35 pm 13:35 Sunny 74 23.4 52 10.9 45 45 SSW 5 7 29.94 1014 10 16 0.00 0.00
1:55 pm 13:55 Sunny 75 24 52 11.2 45 45 WSW 6 9 29.94 1014 10 16 0.00 0.00
2:15 pm 14:15 Sunny 76 24.3 51 10.8 43 43 SW 5 7 29.91 1013 10 16 0.00 0.00
2:35 pm 14:35 Sunny 76 24.7 53 11.4 43 43 SSW 5 7 29.91 1013 10 16 0.00 0.00
2:55 pm 14:55 Sunny 77 25 52 11.1 42 42 SSW 6 9 29.91 1013 10 16 0.00 0.00
3:15 pm 15:15 Sunny with Nearby Thunderstorms 77 24.9 52 11.2 42 42 SSW 5 7 29.88 1012 10 16 0.00 0.00
3:35 pm 15:35 Sunny 78 25.4 52 11.1 41 41 SW 6 9 29.88 1012 10 16 0.00 0.00
3:55 pm 15:55 Cloudy with Light Rain 76 24.3 49 9.6 39 39 Calm 29.88 1012 10 16 0.00 0.00
4:15 pm 16:15 Partly Cloudy with Nearby Thunderstorms 76 24.7 52 11 42 42 Calm 29.88 1012 10 16 0.00 0.00
4:35 pm 16:35 Mostly Cloudy with Nearby Thunderstorms 76 24.4 51 10.3 41 41 Calm 29.88 1012 10 16 0.00 0.00
4:55 pm 16:55 Cloudy with Strong Thunderstorms 67 19.2 55 12.9 67 67 S 10 17 29.88 1012 7 11 0.09 2.29
5:15 pm 17:15 Cloudy with Thunderstorms 65 18.5 57 13.9 75 75 SW 21 33 29.91 1013 10 16 0.00 0.00
5:35 pm 17:35 Cloudy with Strong Thunderstorms 60 15.8 55 12.5 81 81 Calm 29.94 1014 5 8 0.12 3.05
5:55 pm 17:55 Cloudy with Mist and Fog 60 15.6 56 13.6 88 88 NNE 5 7 29.94 1014 4 6 0.20 5.08
6:15 pm 18:15 Partly Cloudy 60 15.7 57 14.1 90 90 SW 3 6 29.94 1014 10 16 0.00 0.00
6:35 pm 18:35 Cloudy with Nearby Thunderstorms 62 16.4 58 14.2 87 87 Calm 29.94 1014 10 16 0.00 0.00
6:55 pm 18:55 Partly Cloudy 62 16.5 58 14.4 87 87 Calm 29.94 1014 10 16 0.00 0.00
7:15 pm 19:15 Cloudy with Light Rain 63 17 59 14.9 88 88 Calm 29.94 1014 10 16 0.00 0.00
7:35 pm 19:35 Cloudy with Light Rain 62 16.9 60 15.4 91 91 Calm 29.91 1013 10 16 0.00 0.00
7:55 pm 19:55 Cloudy 64 17.5 60 15.7 89 89 ENE 6 9 29.91 1013 10 16 0.00 0.00
8:15 pm 20:15 Cloudy 62 16.9 60 15.7 93 93 Calm 29.94 1014 10 16 0.00 0.00
8:35 pm 20:35 Cloudy 62 16.8 61 15.9 94 94 Calm 29.94 1014 10 16 0.01 0.25
8:55 pm 20:55 Cloudy 62 16.5 60 15.8 96 96 Calm 29.97 1015 7 11 0.01 0.25
9:15 pm 21:15 Cloudy 62 16.5 60 15.8 96 96 Calm 29.97 1015 10 16 0.00 0.00
9:35 pm 21:35 Cloudy 61 16.3 60 15.7 96 96 Calm 29.97 1015 7 11 0.00 0.00
9:55 pm 21:55 Cloudy 62 16.5 60 15.5 94 94 Calm 29.97 1015 10 16 0.00 0.00
10:15 pm 22:15 Cloudy 62 16.5 58 14.7 89 89 SE 7 11 29.97 1015 10 16 0.00 0.00
10:35 pm 22:35 Cloudy 61 16.3 57 13.8 85 85 SSE 6 9 29.97 1015 10 16 0.00 0.00
10:55 pm 22:55 Mostly Cloudy 61 16.2 57 13.8 86 86 Calm 30.00 1016 10 16 0.00 0.00
11:15 pm 23:15 Cloudy 61 16.1 57 13.8 86 86 SSE 3 6 30.00 1016 10 16 0.00 0.00
11:35 pm 23:35 Cloudy 61 16.3 57 13.8 85 85 SSE 3 6 30.00 1016 10 16 0.00 0.00
11:55 pm 23:55 Partly Cloudy 60 15.3 58 14.4 94 94 Calm 30.03 1017 10 16 0.00 0.00

Powered by AerisWeather